Weather reports worldwide

Advertisment
Landsort, Sweden (2567): temperature & dewpoint: 29.05.2020 19:00:00 - 04.06.2020 19:00:00 (CEST)Landsort, Sweden (2567): wind speed & gusts: 29.05.2020 19:00:00 - 04.06.2020 19:00:00 (CEST)Landsort, Sweden (2567): wind direction: 29.05.2020 19:00:00 - 04.06.2020 19:00:00 (CEST)Landsort, Sweden (2567): reduced air pressure: 29.05.2020 19:00:00 - 04.06.2020 19:00:00 (CEST)Landsort, Sweden (2567): visibility: 29.05.2020 19:00:00 - 04.06.2020 19:00:00 (CEST)Landsort, Sweden (2567): precipitation: 29.05.2020 19:00:00 - 04.06.2020 19:00:00 (CEST)
Date & Time tt [°C] td [°C] ff [km/h] ff [kn] fx [km/h] fx [kn] dd ppp [hPa] vv [km] rr [mm]
04.06.2020 19:00:00 12,5 10,6 18 10 22 12 ENE 1002,3 35 0,0
04.06.2020 18:00:00 12,7 10,6 20 11 27 15 ENE 1002,6 39 0,0
04.06.2020 17:00:00 13,1 10,8 25 14 29 16 E 1002,8 28 0,0
04.06.2020 16:00:00 13,1 10,5 23 13 29 16 E 1003,2 30 0,0
04.06.2020 15:00:00 13,5 11,0 24 13 31 17 ENE 1003,5 33 0,0
04.06.2020 14:00:00 13,8 10,4 22 12 29 16 E 1003,8 33 0,0
04.06.2020 13:00:00 13,6 10,3 21 11 32 18 E 1004,2 41 0,0
04.06.2020 12:00:00 13,4 9,3 12 6 24 13 NE 1004,6 34 0,0
04.06.2020 11:00:00 13,7 9,9 21 11 26 14 ENE 1005,0 36 0,0
04.06.2020 10:00:00 12,3 9,5 21 11 26 14 ENE 1005,1 30 0,0
04.06.2020 09:00:00 12,6 9,7 15 8 24 13 NNE 1005,3 38 0,0
04.06.2020 08:00:00 11,5 9,3 20 11 24 13 ENE 1005,6 41 0,0
04.06.2020 07:00:00 11,3 9,4 19 10 25 13 NE 1005,8 41 0,0
04.06.2020 06:00:00 11,1 9,2 21 11 26 14 NE 1006,1 48 0,0
04.06.2020 05:00:00 11,0 9,1 22 12 26 14 NE 1006,4 41 0,0
04.06.2020 04:00:00 10,9 9,0 18 10 22 12 NE 1006,8 50 0,0
04.06.2020 03:00:00 10,7 9,1 16 9 24 13 NE 1007,2 45 0,0
04.06.2020 02:00:00 10,9 9,2 21 11 24 13 ENE 1007,7 28 0,0
04.06.2020 01:00:00 10,8 9,3 18 10 25 14 ENE 1008,3 26 0,0
04.06.2020 00:00:00 10,8 9,3 21 12 27 15 E 1008,6 36 0,0
03.06.2020 23:00:00 10,9 9,1 24 13 27 15 ENE 1008,9 2,2 0,0
03.06.2020 22:00:00 11,2 9,7 16 9 23 12 ENE 1009,4 9 0,0
03.06.2020 21:00:00 11,4 9,8 14 7 19 11 ENE 1009,6 12 0,0
03.06.2020 20:00:00 11,6 9,8 16 9 22 12 ENE 1009,9 10 0,0
03.06.2020 19:00:00 11,9 9,6 19 10 24 13 ENE 1010,2 6 0,0
03.06.2020 18:00:00 12,4 9,3 18 10 21 12 E 1010,6 8 0,0
03.06.2020 17:00:00 12,8 9,5 16 8 22 12 E 1011,0 8 0,0
03.06.2020 16:00:00 13,3 9,9 16 9 20 11 E 1011,3 11 0,0
03.06.2020 15:00:00 13,4 10,1 18 10 22 12 E 1011,6 14 0,0
03.06.2020 14:00:00 13,7 10,2 16 9 26 14 E 1012,1 15 0,0
03.06.2020 13:00:00 13,6 9,9 18 10 22 12 E 1012,1 19 0,0
03.06.2020 12:00:00 13,1 9,9 19 11 24 13 E 1012,3 12 0,0
03.06.2020 11:00:00 12,7 9,8 22 12 24 13 E 1012,6 12 0,0
03.06.2020 10:00:00 12,2 9,4 17 9 20 11 ENE 1012,8 42 0,0
03.06.2020 09:00:00 11,6 9,2 13 7 21 11 ENE 1013,0 50 0,0
03.06.2020 08:00:00 12,6 9,0 17 9 22 12 ENE 1013,0 35 0,0
03.06.2020 07:00:00 11,4 8,9 16 8 19 11 ENE 1013,1 39 0,0
03.06.2020 06:00:00 10,7 8,5 11 6 16 9 ENE 1013,3 46 0,0
03.06.2020 05:00:00 10,5 8,7 14 8 20 11 E 1013,3 47 0,0
03.06.2020 04:00:00 10,2 7,9 14 8 18 10 E 1013,4 50 0,0
03.06.2020 03:00:00 10,2 7,9 15 8 19 11 E 1013,8 50 0,0
03.06.2020 02:00:00 10,2 7,5 14 8 18 10 E 1014,2 50 0,0
03.06.2020 01:00:00 10,2 7,9 15 8 20 11 E 1014,7 50 0,0
03.06.2020 00:00:00 10,2 7,9 13 7 15 8 E 1015,0 50 0,0
02.06.2020 23:00:00 10,1 7,3 0 0 4 2 N 1015,3 50 0,0
02.06.2020 22:00:00 10,4 7,2 5 3 21 11 E 1015,8 50 0,0
02.06.2020 21:00:00 11,0 5,5 19 11 24 13 E 1016,2 50 0,0
02.06.2020 20:00:00 11,7 7,0 21 12 25 13 E 1016,8 50 0,0
02.06.2020 19:00:00 11,6 7,1 21 12 24 13 E 1017,1 45 0,0
02.06.2020 18:00:00 11,6 6,5 20 11 23 13 E 1017,2 46 0,0
02.06.2020 17:00:00 12,2 8,2 20 11 23 13 E 1017,7 37 0,0
02.06.2020 16:00:00 12,4 8,0 21 11 24 13 E 1018,2 38 0,0
02.06.2020 15:00:00 13,2 8,3 16 9 24 13 E 1019,1 50 0,0
02.06.2020 14:00:00 13,3 8,6 20 11 23 12 E 1019,5 40 0,0
02.06.2020 13:00:00 12,6 8,2 19 10 24 13 E 1020,1 35 0,0
02.06.2020 12:00:00 12,6 7,7 21 11 26 14 E 1020,5 2,0 0,0
02.06.2020 11:00:00 13,5 8,0 18 10 23 12 E 1020,7 13 0,0
02.06.2020 10:00:00 13,0 8,7 17 9 20 11 E 1021,0 12 0,0
02.06.2020 09:00:00 12,9 9,0 14 7 18 10 ESE 1020,9 41 0,0
02.06.2020 08:00:00 13,7 9,2 11 6 15 8 ESE 1020,7 34 0,0
02.06.2020 07:00:00 13,2 9,6 11 6 13 7 ESE 1020,5 39 0,0
02.06.2020 06:00:00 12,5 9,7 6 4 20 11 SSE 1020,8 41 0,0
02.06.2020 05:00:00 12,0 10,0 16 9 21 11 SE 1020,5 32 0,0
02.06.2020 04:00:00 12,1 9,9 17 9 23 12 ESE 1020,5 46 0,0
02.06.2020 03:00:00 12,3 10,1 19 11 24 13 ESE 1020,5 50 0,0
02.06.2020 02:00:00 12,4 10,5 14 8 16 9 NE 1020,5 50 0,0
02.06.2020 01:00:00 13,8 10,1 4 2 9 5 NE 1020,8 50 0,0
02.06.2020 00:00:00 13,5 10,2 5 3 22 12 ESE 1021,2 50 0,0
01.06.2020 23:00:00 14,8 10,1 15 8 18 10 WNW 1021,2 50 0,0
01.06.2020 22:00:00 14,2 10,6 15 8 19 10 W 1021,8 49 0,0
01.06.2020 21:00:00 14,0 10,9 17 9 19 11 W 1022,2 50 0,0
01.06.2020 20:00:00 15,2 10,8 13 7 21 12 WSW 1022,7 50 0,0
01.06.2020 19:00:00 15,7 9,8 16 9 21 11 SW 1023,4 47 0,0
01.06.2020 18:00:00 16,2 10,6 12 7 19 10 WSW 1024,0 45 0,0
01.06.2020 17:00:00 15,9 11,5 13 7 18 10 WSW 1024,8 48 0,0
01.06.2020 16:00:00 17,3 9,7 10 5 13 7 S 1025,3 42 0,0
01.06.2020 15:00:00 17,7 9,6 7 4 12 6 SSW 1025,9 43 0,0
01.06.2020 14:00:00 17,2 8,9 5 3 11 6 S 1026,5 44 0,0
01.06.2020 13:00:00 17,3 10,4 10 5 12 7 ESE 1026,9 43 0,0
01.06.2020 12:00:00 15,8 8,8 6 4 11 6 ESE 1027,3 42 0,0
01.06.2020 11:00:00 16,1 7,8 9 5 14 8 NE 1027,5 44 0,0
01.06.2020 10:00:00 15,9 7,7 14 8 22 12 NE 1027,5 50 0,0
01.06.2020 09:00:00 14,3 7,0 17 9 21 11 NE 1027,6 47 0,0
01.06.2020 08:00:00 14,6 6,0 18 10 21 11 NE 1027,4 46 0,0
01.06.2020 07:00:00 14,5 4,8 11 6 20 11 N 1027,1 41 0,0
01.06.2020 06:00:00 13,3 4,6 11 6 19 11 N 1027,2 50 0,0
01.06.2020 05:00:00 11,9 6,0 14 8 18 10 NW 1027,3 50 0,0
01.06.2020 04:00:00 11,6 7,1 10 5 17 9 NW 1027,7 50 0,0
01.06.2020 03:00:00 11,9 7,2 13 7 16 9 NNW 1028,1 50 0,0
01.06.2020 02:00:00 12,7 4,9 11 6 18 10 NNW 1028,3 50 0,0
01.06.2020 01:00:00 12,3 6,9 10 6 16 9 NNW 1028,5 50 0,0
01.06.2020 00:00:00 12,5 8,3 11 6 16 8 NNW 1028,6 50 0,0
31.05.2020 23:00:00 12,7 7,9 13 7 19 11 WNW 1028,6 50 0,0
31.05.2020 22:00:00 14,5 6,0 12 7 19 10 N 1028,8 50 0,0
31.05.2020 21:00:00 12,8 7,6 10 6 16 9 NE 1028,8 50 0,0
31.05.2020 20:00:00 13,8 7,2 14 8 24 13 NE 1028,7 50 0,0
31.05.2020 19:00:00 13,6 7,0 24 13 36 19 E 1028,6 48 0,0
31.05.2020 18:00:00 13,8 7,0 31 17 35 19 E 1028,6 48 0,0
31.05.2020 17:00:00 13,9 7,6 24 13 31 17 E 1028,8 45 0,0
31.05.2020 16:00:00 14,2 7,5 27 14 30 16 E 1029,2 43 0,0
31.05.2020 15:00:00 15,3 7,0 19 11 24 13 E 1029,7 50 0,0
31.05.2020 14:00:00 14,8 7,4 16 8 25 14 E 1030,2 45 0,0
31.05.2020 13:00:00 14,3 7,7 23 13 27 14 E 1030,4 46 0,0
31.05.2020 12:00:00 14,1 7,6 22 12 26 14 E 1030,6 41 0,0
31.05.2020 11:00:00 13,8 7,7 23 13 29 15 ENE 1030,6 49 0,0
31.05.2020 10:00:00 13,9 7,7 27 14 32 17 NE 1030,3 46 0,0
31.05.2020 09:00:00 13,2 7,6 28 15 33 18 NE 1030,0 46 0,0
31.05.2020 08:00:00 13,0 7,1 29 16 35 19 NE 1029,7 46 0,0
31.05.2020 07:00:00 12,5 6,7 30 16 38 20 NNE 1029,3 48 0,0
31.05.2020 06:00:00 11,7 6,2 30 16 40 21 NNE 1029,0 50 0,0
31.05.2020 05:00:00 10,7 5,9 19 11 32 17 NNE 1029,0 50 0,0
31.05.2020 04:00:00 10,6 5,7 21 11 29 16 NNE 1028,8 50 0,0
31.05.2020 03:00:00 10,8 5,4 19 11 32 17 N 1028,7 50 0,0
31.05.2020 02:00:00 11,6 5,2 24 13 38 20 NNE 1028,5 50 0,0
31.05.2020 01:00:00 12,1 4,6 24 13 37 20 N 1028,3 50 0,0
31.05.2020 00:00:00 12,3 4,4 23 12 36 20 N 1028,6 50 0,0
30.05.2020 23:00:00 13,0 4,9 22 12 38 21 N 1028,8 50 0,0
30.05.2020 22:00:00 13,8 4,8 29 16 45 24 NNE 1028,6 50 0,0
30.05.2020 21:00:00 13,8 6,4 24 13 37 20 NNE 1028,2 50 0,0
30.05.2020 20:00:00 14,4 6,6 34 18 40 22 NE 1028,0 46 0,0
30.05.2020 19:00:00 13,5 7,4 28 15 38 20 ENE 1027,8 50 0,0
30.05.2020 18:00:00 13,8 7,5 27 15 36 19 ENE 1027,9 44 0,0
30.05.2020 17:00:00 13,6 7,5 33 18 40 21 ENE 1028,0 37 0,0
30.05.2020 16:00:00 14,3 7,7 24 13 29 16 ENE 1028,3 47 0,0
30.05.2020 15:00:00 14,5 7,9 15 8 23 12 E 1028,8 43 0,0
30.05.2020 14:00:00 14,8 7,3 16 8 28 15 ENE 1029,4 47 0,0
30.05.2020 13:00:00 14,6 6,9 25 13 42 23 NE 1029,6 49 0,0
30.05.2020 12:00:00 14,7 6,6 25 14 31 17 NE 1029,6 39 0,0
30.05.2020 11:00:00 14,7 6,5 23 13 27 15 NNE 1029,8 42 0,0
30.05.2020 10:00:00 13,4 6,9 20 11 27 15 NE 1029,8 44 0,0
30.05.2020 09:00:00 13,0 7,2 21 12 28 15 NE 1029,7 43 0,0
30.05.2020 08:00:00 13,0 6,5 23 12 28 15 NNE 1029,7 44 0,0
30.05.2020 07:00:00 12,7 6,5 14 7 22 12 NNE 1029,3 45 0,0
30.05.2020 06:00:00 11,8 6,7 16 9 23 12 N 1029,2 50 0,0
30.05.2020 05:00:00 10,9 6,1 11 6 29 16 N 1029,2 50 0,0
30.05.2020 04:00:00 10,3 7,6 18 10 29 15 NNW 1029,1 50 0,0
30.05.2020 03:00:00 9,9 8,3 19 10 24 13 NNW 1029,1 50 0,0
30.05.2020 02:00:00 10,2 8,5 14 8 19 10 NW 1029,2 50 0,0
30.05.2020 01:00:00 10,4 8,5 9 5 15 8 WNW 1029,5 50 0,0
30.05.2020 00:00:00 10,4 7,5 10 5 13 7 WNW 1029,3 50 0,0
29.05.2020 23:00:00 10,5 7,3 8 4 9 5 W 1029,1 50 0,0
29.05.2020 22:00:00 10,5 7,3 4 2 7 4 WSW 1029,1 50 0,0
29.05.2020 21:00:00 10,8 7,0 5 3 10 6 S 1029,1 50 0,0
29.05.2020 20:00:00 11,3 6,7 8 4 18 10 SSE 1028,9 50 0,0
29.05.2020 19:00:00 11,3 6,9 16 9 19 10 ESE 1029,2 42 0,0

tt = temperature
td = dewpoint
ff = wind speed
fx = gusts
dd = wind direction
ppp = reduced air pressure
vv = visibility
rr = precipitation

Next stations